User: anonymous   Login
Location: Unspecified
(0.0000°N, 0.0000°E)
Time: 17:32:02
(UTC+00:00)
Language:

CUTE 1.7 + AOD 2 - Orbit

View from above orbital plane
View from above orbital plane
View from above satellite
View from above satellite

Ground track
Ground track

The orbit data is extracted from the following two-line orbital elements,

1 32785U 08021C   15064.94591498  .00002033  00000-0  23552-3 0  9999
2 32785 097.6628 112.2655 0014625 051.8993 070.3215 14.86460448370890
Epoch (UTC): 05 March 2015 22:42:07
Eccentricity: 0.0014625
inclination: 97.6628°
perigee height: 599 km
apogee height: 619 km
right ascension of ascending node: 112.2655°
argument of perigee: 51.8993°
revolutions per day: 14.86460448
mean anomaly at epoch: 70.3215°
orbit number at epoch: 37089

The dashed part of the orbit path shows where the satellite is in the earth's shadow,  

DLR